Date,TemperatureHighF,TemperatureAvgF,TemperatureLowF,DewpointHighF,DewpointAvgF,DewpointLowF,HumidityHigh,HumidityAvg,HumidityLow,PressureMaxIn,PressureMinIn,WindSpeedMaxMPH,WindSpeedAvgMPH,GustSpeedMaxMPH,PrecipitationSumIn
2013-1-1,56.2,50.6,45.3,46.3,41.1,32.9,81,70,56,30.21,30.15,3,0,7,0.00
2013-1-2,53.2,51.3,49.1,49.4,46.8,43.5,91,85,73,30.33,30.14,5,0,13,0.40
2013-1-3,60.4,54.3,50.5,46.0,43.2,40.7,76,66,58,30.54,30.33,5,1,9,0.01
2013-1-4,57.3,52.5,48.8,47.4,44.2,41.4,81,73,65,30.53,30.33,5,1,9,0.00
2013-1-5,55.1,51.1,47.5,47.7,45.2,42.8,86,80,74,30.33,30.14,3,0,4,0.00
2013-1-6,59.6,53.6,49.9,48.9,43.3,37.3,86,69,44,30.25,30.14,8,2,15,0.00
2013-1-7,58.4,52.5,49.9,49.1,46.6,39.8,88,81,50,30.18,30.10,3,1,10,0.00
2013-1-8,52.4,51.8,51.3,46.5,45.9,44.7,83,80,76,30.28,30.27,0,0,1,0.00
2013-1-9,57.0,53.2,51.0,47.7,45.3,42.3,81,75,66,30.26,30.18,1,0,5,0.00
2013-1-10,54.6,52.1,50.9,49.4,47.4,45.1,91,84,73,30.18,29.87,5,1,13,0.05
2013-1-11,56.1,52.1,47.5,50.3,45.9,39.5,90,80,60,29.91,29.80,12,3,25,0.23
2013-1-12,57.2,50.7,46.0,47.1,43.9,41.0,87,78,65,30.12,29.86,3,0,8,0.05
2013-1-13,55.5,51.9,50.2,51.1,44.0,41.0,88,75,67,30.11,29.92,6,1,15,0.03
2013-1-14,56.2,53.0,48.2,51.6,47.9,43.9,89,83,76,29.99,29.87,9,3,23,0.31
2013-1-15,53.6,48.9,44.0,47.1,44.4,41.3,92,85,77,29.99,29.62,7,1,16,0.02
2013-1-16,50.1,45.4,41.4,44.9,39.4,34.2,92,80,60,29.62,29.56,8,3,22,0.44
2013-1-17,52.2,47.5,41.3,47.9,43.1,37.3,96,85,65,29.57,29.37,9,1,16,0.64
2013-1-18,47.1,42.5,37.9,39.6,37.5,35.6,93,82,73,29.66,29.35,10,2,20,0.08
2013-1-19,54.2,46.3,41.2,51.3,41.0,33.8,93,82,62,29.74,29.66,5,1,13,0.16
2013-1-20,59.0,56.2,52.3,55.4,53.4,50.7,95,90,85,29.66,29.48,5,2,16,0.06
2013-1-21,55.0,51.2,48.5,51.7,47.0,43.0,95,86,73,29.64,29.42,9,3,22,0.71
2013-1-22,54.0,49.4,46.0,47.2,42.8,36.4,94,79,52,29.88,29.62,12,4,25,0.41
2013-1-23,53.2,48.3,43.8,47.2,44.1,40.0,94,85,71,29.89,29.54,6,1,19,0.15
2013-1-24,45.5,45.1,44.9,43.7,43.4,43.0,95,94,92,29.54,29.52,3,1,7,0.39
2013-1-25,52.1,46.5,41.7,40.7,36.9,32.2,84,69,59,29.67,29.48,6,3,19,0.00
2013-1-26,48.1,45.1,42.2,35.4,32.6,30.7,71,61,58,29.91,29.67,5,1,10,0.00
2013-1-27,53.4,46.2,40.8,40.2,33.7,30.1,78,62,45,30.05,29.90,6,2,15,0.00
2013-1-28,51.4,47.4,45.3,43.4,41.1,38.3,91,79,62,30.06,29.92,6,1,13,0.15
2013-1-29,56.5,50.2,45.6,46.2,41.0,37.4,85,71,54,30.28,30.06,7,2,15,0.00
2013-1-30,58.4,52.4,48.2,50.1,46.7,43.3,90,81,72,30.28,30.20,7,1,12,0.00
2013-1-31,62.3,55.6,52.6,53.8,51.0,48.7,93,85,65,30.26,30.17,3,1,8,0.00
2013-2-1,59.0,55.5,53.1,54.1,51.9,50.0,95,88,77,30.17,29.87,5,1,12,0.00
2013-2-2,59.1,55.1,47.6,54.0,51.8,42.3,96,89,76,29.87,29.36,14,5,27,0.16
2013-2-3,52.4,47.5,43.9,46.2,40.5,31.0,92,77,59,29.99,29.48,8,3,18,0.25
2013-2-4,53.2,46.8,41.3,39.0,31.7,25.3,78,57,35,30.19,29.99,7,2,12,0.00
2013-2-5,53.4,49.6,43.8,50.3,42.6,36.9,94,77,65,30.18,29.85,6,1,13,0.07
2013-2-6,55.3,51.9,48.3,49.4,45.4,36.9,90,79,63,29.86,29.55,10,3,21,0.01
2013-2-7,49.0,45.3,41.9,44.2,40.3,36.3,92,83,72,29.58,29.54,7,1,14,0.28
2013-2-8,48.5,44.1,41.4,37.8,34.1,30.5,86,68,56,29.78,29.58,7,2,15,0.02
2013-2-9,47.9,41.6,37.5,33.0,29.9,27.6,83,64,48,29.92,29.76,6,1,13,0.00
2013-2-10,43.7,39.7,37.2,30.7,28.8,26.6,74,65,52,30.03,29.90,5,1,12,0.00
2013-2-11,53.5,47.4,38.7,46.9,39.5,23.2,91,75,48,29.99,29.69,9,3,24,0.23
2013-2-12,50.5,45.9,43.1,47.7,42.3,38.7,93,87,77,29.72,29.62,7,2,17,0.87
2013-2-13,54.2,48.1,44.1,44.1,40.5,36.4,87,76,52,29.86,29.69,6,1,13,0.10
2013-2-14,55.4,48.4,42.3,42.7,38.5,36.6,88,70,54,30.03,29.87,7,2,14,0.02
2013-2-15,54.4,48.3,43.3,44.3,39.9,35.9,89,73,56,30.05,30.01,5,1,10,0.05
2013-2-16,54.5,48.7,44.4,44.0,40.0,36.9,92,73,56,30.10,30.00,6,2,12,0.04
2013-2-17,55.3,48.8,45.0,43.0,37.6,34.2,81,66,52,30.11,30.01,7,1,13,0.00
2013-2-18,52.4,47.4,41.5,41.9,39.3,36.1,87,74,61,30.04,29.98,8,1,16,0.07
2013-2-19,54.2,46.8,40.7,38.9,35.3,31.6,80,65,47,30.03,29.98,5,1,13,0.00
2013-2-20,53.9,48.2,43.9,41.6,37.9,35.7,84,68,53,30.05,29.96,5,1,12,0.00
2013-2-21,51.4,47.6,44.9,42.3,38.6,34.4,80,71,59,29.96,29.74,5,1,10,0.02
2013-2-22,53.3,49.0,44.8,51.7,45.7,38.8,95,89,71,29.74,29.54,8,2,20,0.70
2013-2-23,56.5,52.5,47.1,51.1,48.1,43.1,93,85,75,29.71,29.56,10,4,23,0.31
2013-2-24,53.2,47.2,42.6,49.2,39.1,31.3,90,74,52,30.01,29.70,12,3,22,0.13
2013-2-25,44.4,42.9,40.7,40.7,37.2,34.0,91,81,67,30.08,30.01,6,1,9,0.16
2013-2-27,49.5,48.3,47.2,39.3,38.7,38.1,73,69,65,30.24,30.21,2,0,4,0.00
2013-2-28,57.8,50.8,44.6,43.5,39.7,37.5,76,66,51,30.28,30.14,5,1,8,0.00
2013-3-1,56.0,52.0,48.4,41.8,39.7,37.5,69,63,56,30.14,29.91,5,2,9,0.00
2013-3-2,52.6,50.3,46.1,42.7,39.8,34.4,73,67,59,30.04,29.82,14,4,29,0.00
2013-3-3,59.6,51.6,44.2,45.2,37.0,25.6,85,59,29,30.13,30.04,7,2,12,0.00
2013-3-4,58.9,52.3,46.4,46.7,44.0,41.7,91,74,56,30.25,30.12,3,0,9,0.00
2013-3-5,58.4,52.8,47.9,43.9,41.7,34.8,84,67,41,30.24,30.07,3,0,9,0.00
2013-3-6,60.7,56.4,53.8,53.7,46.3,36.2,94,71,44,30.06,29.79,14,3,25,0.25
2013-3-7,57.8,56.0,55.3,56.7,55.0,54.1,98,96,94,29.85,29.78,5,1,13,0.06
2013-3-8,56.0,55.0,53.7,55.7,53.9,49.3,99,96,83,29.85,29.74,6,2,17,0.37
2013-3-9,60.6,56.0,53.6,55.1,52.8,50.7,97,89,74,29.84,29.76,5,2,15,0.00
2013-3-10,61.4,56.5,53.1,54.4,53.1,50.6,96,89,73,29.78,29.66,9,2,21,0.11
2013-3-11,59.7,56.0,53.3,53.7,51.2,47.9,92,84,72,29.70,29.64,7,2,13,0.00
2013-3-12,58.2,52.8,49.0,51.5,48.4,45.9,94,85,67,29.67,29.55,7,3,15,0.11
2013-3-13,55.1,52.0,49.0,50.7,48.6,46.5,92,88,80,29.59,29.46,5,1,13,0.13
2013-3-14,49.5,48.1,46.6,47.6,45.8,43.7,96,92,83,29.33,29.13,10,2,20,0.74
2013-3-15,48.6,42.0,37.7,44.4,34.2,28.9,96,74,61,29.92,29.33,9,4,20,0.82
2013-3-16,52.5,44.5,39.3,33.3,30.1,25.9,69,57,41,30.19,29.92,5,1,13,0.00
2013-3-17,53.5,48.8,42.7,46.2,37.2,31.7,77,64,56,30.18,29.93,5,1,14,0.02
2013-3-18,58.3,54.9,51.0,54.5,49.9,42.1,93,83,63,29.92,29.64,10,4,23,0.22
2013-3-19,58.7,54.2,51.2,47.0,44.1,41.2,83,69,55,29.88,29.75,12,3,20,0.00
2013-3-20,62.4,53.0,47.8,50.2,42.2,28.7,96,71,29,29.88,29.73,3,0,8,0.40
2013-3-21,58.0,54.1,49.4,53.5,47.3,40.8,97,79,54,29.97,29.69,14,6,24,0.03
2013-3-22,60.3,54.5,48.2,49.0,46.3,42.1,88,74,57,29.98,29.93,6,1,13,0.00
2013-3-23,62.8,56.4,49.4,48.9,44.9,37.7,91,68,40,29.99,29.84,3,0,8,0.00
2013-3-24,70.8,62.5,56.4,50.1,43.3,31.9,68,51,24,29.84,29.51,7,2,16,0.00
2013-3-25,60.2,56.0,53.2,54.2,50.9,47.2,96,83,66,29.53,29.36,9,4,24,0.21
2013-3-26,57.9,53.7,51.1,51.7,48.9,45.2,94,84,72,29.64,29.53,10,3,23,0.07
2013-3-27,57.8,54.0,51.6,53.0,49.6,44.8,92,85,70,29.87,29.64,5,1,13,0.00
2013-3-28,58.2,55.2,51.8,55.2,51.3,47.0,92,87,78,29.96,29.85,5,1,12,0.01
2013-3-29,66.3,58.6,53.8,56.2,53.7,51.5,95,85,64,29.95,29.86,6,1,14,0.03
2013-3-30,57.4,56.2,54.8,55.8,54.3,52.1,97,93,85,29.86,29.59,8,3,17,0.18
2013-3-31,59.6,55.6,53.0,53.8,50.5,45.1,94,83,59,29.75,29.59,12,5,23,0.24
2013-4-1,60.7,55.5,51.7,52.9,50.6,45.8,93,84,59,29.81,29.66,6,1,13,0.26
2013-4-2,57.7,54.8,50.9,55.4,52.3,48.1,97,91,78,29.66,29.44,12,5,21,0.28
2013-4-3,58.7,54.3,50.9,50.8,49.4,47.4,94,84,67,29.84,29.58,9,4,18,0.28
2013-4-4,66.7,58.7,51.6,52.9,48.4,41.7,93,71,41,29.88,29.61,5,1,13,0.00
2013-4-5,62.2,58.9,54.9,55.1,52.2,46.6,94,79,57,29.84,29.51,6,2,17,0.00
2013-4-6,68.3,59.3,53.0,53.9,51.4,46.8,94,76,59,29.85,29.75,6,1,10,0.01
2013-4-7,64.7,58.9,53.6,51.9,44.5,42.2,73,59,45,29.77,29.67,8,3,17,0.00
2013-4-8,62.0,56.0,51.5,50.4,43.7,36.9,84,64,49,29.95,29.77,8,2,15,0.00
2013-4-9,64.2,57.9,53.8,53.5,51.5,46.7,92,80,62,30.02,29.89,7,2,14,0.00
2013-4-10,61.9,58.2,55.0,55.3,53.7,51.8,90,85,76,30.08,29.97,6,2,13,0.00
2013-4-11,64.9,58.8,53.5,55.1,52.2,49.0,93,79,58,30.11,30.06,5,1,10,0.00
2013-4-12,66.3,59.6,55.5,54.4,53.0,49.8,91,79,57,30.09,30.04,6,1,12,0.00
2013-4-13,65.9,60.5,56.5,57.6,55.0,53.1,93,82,64,30.29,30.08,5,1,10,0.00
2013-4-14,73.4,64.2,55.3,58.0,53.0,38.6,94,69,39,30.36,30.28,6,1,10,0.01
2013-4-15,73.6,67.1,60.7,42.7,37.3,30.5,43,34,23,30.32,30.17,8,1,15,0.00
2013-4-16,69.2,63.8,59.9,58.3,46.8,33.4,76,55,32,30.22,30.15,5,1,9,0.00
2013-4-17,73.3,67.4,60.3,43.8,34.6,27.3,38,30,23,30.24,30.18,8,2,14,0.00
2013-4-18,74.6,66.9,61.1,53.8,38.0,26.8,69,36,20,30.21,30.09,6,1,10,0.00
2013-4-19,69.1,63.2,58.0,58.5,56.3,51.8,92,79,66,30.10,30.00,6,1,12,0.00
2013-4-20,67.7,62.2,58.3,58.5,56.4,53.3,94,82,68,30.07,30.02,6,1,12,0.00
2013-4-21,65.0,59.2,56.7,53.3,47.7,43.4,81,66,46,30.08,30.01,7,2,15,0.02
2013-4-22,62.1,56.2,48.7,50.9,47.7,45.0,93,74,60,30.10,29.95,6,1,12,0.54
2013-4-23,67.9,62.2,52.9,54.3,48.1,37.7,77,61,36,30.28,30.09,5,1,10,0.00
2013-4-24,76.9,67.5,58.9,54.2,51.2,48.1,71,57,39,30.35,30.27,6,2,13,0.00
2013-4-25,81.7,71.9,63.6,55.6,48.0,39.9,66,45,23,30.29,30.14,5,1,9,0.00
2013-4-26,78.8,67.8,58.5,56.1,50.7,41.0,83,57,27,30.17,30.00,6,1,13,0.20
2013-4-27,63.5,61.0,57.2,57.2,54.6,52.1,93,80,67,30.00,29.87,3,1,9,0.24
2013-4-28,80.7,70.1,58.9,57.0,53.0,44.7,88,59,32,30.02,29.92,5,0,7,0.00
2013-4-29,81.9,75.8,69.0,54.3,48.6,42.9,58,39,27,30.07,30.02,7,1,12,0.00
2013-4-30,87.5,76.0,67.7,54.3,47.7,40.7,62,37,25,30.12,30.03,5,1,9,0.00
2013-5-1,84.3,76.2,69.7,56.4,47.9,34.2,55,38,19,30.10,30.00,5,1,13,0.00
2013-5-2,79.7,72.2,65.9,62.1,55.5,45.3,84,57,30,30.05,29.93,8,2,17,0.02
2013-5-3,78.2,70.9,63.5,60.7,57.1,50.5,87,63,38,29.98,29.93,5,1,12,0.00
2013-5-4,84.6,73.3,65.1,61.7,56.3,48.1,82,57,34,30.03,29.91,6,1,10,0.02
2013-5-5,81.3,73.2,63.2,60.8,56.5,51.3,83,58,37,29.99,29.93,7,2,12,0.05
2013-5-6,71.2,66.1,61.0,62.4,58.4,54.4,84,76,68,30.05,29.91,9,2,15,0.05
2013-5-7,68.6,63.1,58.6,58.5,56.3,53.2,88,79,66,30.07,30.02,6,1,13,0.04
2013-5-8,71.0,65.4,60.7,59.6,57.5,52.3,88,76,53,30.05,29.95,5,1,13,0.00
2013-5-9,75.4,68.4,61.6,59.3,56.6,50.0,88,67,44,30.02,29.96,7,1,13,0.00
2013-5-10,71.7,67.0,62.6,61.5,58.9,55.8,90,76,59,30.02,29.97,5,1,10,0.00
2013-5-11,69.7,65.2,61.3,61.0,57.9,52.3,89,78,65,30.00,29.91,7,2,14,0.00
2013-5-12,69.3,63.7,59.6,57.2,54.5,50.8,84,73,55,29.94,29.88,7,2,13,0.00
2013-5-13,71.5,64.4,59.9,57.8,52.9,41.3,86,67,50,30.01,29.90,8,2,15,0.00
2013-5-14,73.0,66.9,58.0,54.8,45.9,34.7,73,48,26,30.04,29.95,6,2,15,0.00
2013-5-15,72.1,65.2,60.9,58.4,54.3,41.0,84,69,36,29.94,29.76,3,1,9,0.00
2013-5-16,80.7,70.1,64.4,62.5,56.9,49.5,90,64,44,29.76,29.55,6,2,15,0.07
2013-5-17,69.1,65.1,61.2,62.1,57.9,53.7,91,78,61,29.99,29.61,7,2,16,0.07
2013-5-18,83.6,71.1,59.1,55.7,50.7,36.8,81,53,23,30.04,29.89,3,1,12,0.00
2013-5-19,72.8,66.2,61.4,61.9,54.2,45.7,86,66,49,30.12,29.86,10,4,20,0.00
2013-5-20,68.7,63.9,59.1,58.1,54.4,49.6,84,72,54,30.16,30.08,6,1,12,0.00
2013-5-21,79.3,67.3,59.6,57.4,48.3,40.8,79,53,29,30.08,29.85,8,2,14,0.08
2013-5-22,80.9,70.2,60.5,62.6,57.0,52.8,86,64,46,29.84,29.38,8,3,20,0.14
2013-5-23,67.5,62.6,58.9,58.9,56.3,52.9,92,80,60,29.74,29.42,10,5,24,0.12
2013-5-24,63.6,61.1,59.6,56.7,53.1,47.4,86,75,56,29.94,29.74,12,5,21,0.00
2013-5-25,64.0,58.4,52.6,52.3,48.6,45.1,90,71,53,29.97,29.91,9,4,22,0.17
2013-5-26,64.3,59.3,55.9,50.9,46.2,41.5,83,62,47,30.08,29.91,13,5,22,0.03
2013-5-27,66.4,60.9,55.3,51.3,49.0,45.0,80,66,48,30.09,29.96,6,1,13,0.00
2013-5-28,80.7,67.5,57.0,53.2,47.5,37.4,75,51,28,29.96,29.67,7,2,15,0.00
2013-5-29,68.4,63.7,59.4,59.6,52.3,40.4,87,67,42,29.81,29.71,8,3,20,0.00
2013-5-30,64.5,58.4,53.3,51.8,49.0,45.4,86,71,53,29.85,29.77,8,3,16,0.13
2013-5-31,64.5,59.6,53.2,57.7,53.3,49.1,91,80,61,29.86,29.78,8,3,16,0.37
2013-6-1,65.5,59.6,56.5,56.8,54.4,50.7,93,83,66,29.83,29.77,6,1,13,0.25
2013-6-2,69.4,61.4,54.8,58.6,55.4,51.9,92,81,60,30.00,29.83,7,1,15,0.01
2013-6-3,70.6,64.4,59.9,59.3,57.5,54.9,92,79,60,30.00,29.94,5,1,12,0.00
2013-6-4,71.5,64.4,60.4,60.0,56.7,53.4,87,76,62,30.03,29.96,5,1,12,0.00
2013-6-5,71.5,65.4,59.9,60.6,58.5,56.9,91,79,62,30.10,30.02,6,1,12,0.00
2013-6-6,76.7,69.2,60.5,63.3,60.0,54.2,93,74,57,30.11,30.03,5,1,10,0.00
2013-6-7,81.3,72.8,66.3,60.7,56.2,52.6,69,57,38,30.04,29.99,8,3,15,0.00
2013-6-8,78.5,71.0,65.4,64.6,62.4,58.3,89,75,57,30.04,29.97,5,1,13,0.00
2013-6-9,78.3,70.5,64.5,64.7,60.3,48.2,93,72,39,30.02,29.90,6,1,13,0.00
2013-6-10,73.8,68.5,64.6,63.2,58.1,50.5,89,70,46,29.95,29.89,6,2,15,0.00
2013-6-11,72.4,67.2,63.1,62.4,59.0,54.9,87,76,58,29.99,29.91,8,2,16,0.01
2013-6-12,80.1,71.2,63.6,61.2,56.0,50.4,88,61,36,30.04,29.97,10,3,16,0.00
2013-6-13,83.3,74.4,66.3,56.6,50.1,45.3,58,43,31,30.05,30.00,8,3,18,0.00
2013-6-14,78.6,73.8,69.0,67.1,60.0,51.9,87,63,49,30.08,30.02,5,1,12,0.00
2013-6-15,79.8,73.1,67.4,67.0,63.0,54.0,92,72,48,30.11,30.07,5,1,10,0.00
2013-6-16,83.7,75.7,68.5,68.1,63.9,54.2,82,67,49,30.12,30.06,6,1,12,0.00
2013-6-17,88.1,78.7,70.6,71.2,67.5,64.8,87,70,50,30.09,30.01,3,1,8,0.00
2013-6-18,88.7,82.3,74.9,71.2,67.7,61.6,79,62,45,30.04,30.01,6,1,12,0.00
2013-6-19,90.8,83.9,77.9,71.9,66.3,59.4,69,56,39,30.05,30.00,5,1,9,0.00
2013-6-20,91.6,83.6,76.0,70.1,65.0,57.0,68,55,35,30.05,30.00,3,1,10,0.00
2013-6-21,89.2,82.7,74.9,69.4,63.3,58.1,68,53,37,30.05,30.01,5,1,12,0.00
2013-6-22,86.5,78.2,72.0,69.6,64.0,58.6,79,63,43,30.06,30.00,6,2,13,0.00
2013-6-23,80.7,74.4,70.6,68.2,65.1,61.0,85,73,54,30.06,29.98,7,1,13,0.02
2013-6-24,73.2,70.0,66.4,64.5,60.2,54.8,84,71,54,30.00,29.94,9,3,17,0.00
2013-6-25,76.9,71.0,65.8,61.6,59.2,56.5,85,67,52,30.07,29.97,6,1,12,0.00
2013-6-26,77.6,72.0,65.4,63.2,58.6,52.9,83,64,46,30.08,30.03,7,2,12,0.00
2013-6-27,77.0,71.2,65.8,61.0,55.5,48.6,67,58,47,30.10,30.07,6,2,12,0.00
2013-6-28,74.6,69.9,65.1,62.6,60.4,56.6,82,72,63,30.10,30.02,5,2,14,0.01
2013-6-29,75.3,69.2,64.9,61.1,56.2,51.6,80,64,45,30.04,29.97,7,1,17,0.38
2013-6-30,77.7,72.2,64.3,59.2,52.2,46.7,66,50,35,30.11,30.03,7,2,14,0.00
2013-7-1,79.7,74.0,67.1,62.7,55.4,47.3,74,53,41,30.14,30.09,5,1,12,0.00
2013-7-2,82.3,75.6,68.7,66.3,59.0,48.7,78,57,43,30.11,30.06,6,1,12,0.00
2013-7-3,82.8,75.2,68.5,65.9,60.0,49.6,84,61,40,30.08,30.00,7,1,13,0.00
2013-7-4,77.4,71.8,68.5,66.2,61.8,55.8,88,71,56,30.06,30.00,5,1,10,0.02
2013-7-5,88.5,78.3,68.7,62.4,57.8,51.7,75,52,30,30.11,30.04,7,2,17,0.00
2013-7-6,89.7,80.2,75.4,66.1,57.5,50.9,67,46,34,30.11,30.04,12,2,26,0.08
2013-7-7,88.8,78.5,73.3,67.8,61.7,57.7,75,57,39,30.10,30.03,6,1,13,0.01
2013-7-8,86.8,76.5,72.2,64.1,61.7,59.6,74,61,44,30.11,30.07,5,2,12,0.05
2013-7-9,83.9,76.9,72.1,64.0,61.4,59.1,72,59,46,30.08,30.00,6,1,12,0.00
2013-7-10,82.3,76.1,69.8,67.9,64.4,61.0,79,68,55,30.01,29.91,6,1,13,0.00
2013-7-11,80.2,75.6,70.7,70.4,68.4,65.9,89,79,67,29.97,29.90,6,1,12,0.00
2013-7-12,83.1,76.8,71.3,71.0,68.1,62.0,91,76,58,30.06,29.97,7,1,12,0.00
2013-7-13,84.7,78.1,72.7,72.4,68.7,61.8,87,74,47,30.07,30.02,7,1,13,0.00
2013-7-14,83.4,76.9,72.6,71.0,68.2,62.1,90,75,49,30.05,30.01,7,2,18,0.00
2013-7-15,85.9,78.3,71.5,66.0,61.4,57.0,76,57,40,30.06,30.01,6,2,13,0.00
2013-7-16,89.4,80.9,73.7,65.8,57.2,51.6,71,45,35,30.11,30.06,9,3,15,0.00
2013-7-17,86.4,80.1,74.3,66.2,57.8,51.1,65,47,36,30.11,30.04,5,1,12,0.00
2013-7-18,84.1,79.7,74.5,66.1,59.8,53.2,67,51,42,30.10,30.06,6,1,12,0.00
2013-7-19,82.8,78.0,72.4,71.6,67.5,62.3,81,70,58,30.09,30.02,9,1,16,0.00
2013-7-20,85.0,78.2,71.8,69.2,65.1,60.7,80,65,51,30.03,29.97,5,1,12,0.00
2013-7-21,85.4,78.6,73.4,70.9,65.6,57.0,84,65,47,30.02,29.98,6,1,12,0.00
2013-7-22,89.3,80.4,73.0,67.7,60.6,57.7,69,52,36,30.01,29.95,9,3,15,0.00
2013-7-23,86.7,80.5,74.4,73.2,68.4,62.4,80,67,50,30.00,29.93,5,1,9,0.02
2013-7-24,85.4,79.7,74.7,74.3,71.3,67.3,89,76,61,30.06,29.99,6,1,13,0.00
2013-7-25,87.1,79.6,75.4,73.3,69.7,62.5,90,73,44,30.08,30.03,5,1,15,0.00
2013-7-26,88.1,82.1,75.3,75.5,72.1,69.1,86,72,59,30.05,29.98,6,1,12,0.00
2013-7-27,91.5,83.7,76.8,76.7,71.7,67.0,85,68,47,29.99,29.95,5,1,8,0.00
2013-7-28,93.0,85.0,77.3,77.8,72.6,57.2,86,68,39,30.08,29.98,5,1,9,0.00
2013-7-29,90.6,84.5,78.5,76.1,70.3,61.5,79,63,48,30.10,30.03,5,1,10,0.00
2013-7-30,87.9,82.4,77.0,74.8,70.5,62.5,91,69,44,30.05,29.94,6,1,12,0.00
2013-7-31,90.1,82.6,75.9,70.2,58.7,50.7,75,46,32,29.98,29.92,9,3,16,0.00
2013-8-1,90.0,81.8,75.5,59.5,55.9,51.1,51,42,31,30.03,29.96,9,3,17,0.00
2013-8-2,91.1,84.3,75.8,62.9,58.2,55.4,52,42,33,30.06,30.00,6,2,13,0.00
2013-8-3,92.2,84.8,77.8,73.1,65.7,60.1,64,53,42,30.08,30.03,5,1,12,0.00
2013-8-4,97.1,86.1,80.2,75.5,68.9,58.3,68,58,32,30.08,30.01,5,1,13,0.00
2013-8-5,92.0,84.6,79.4,77.9,72.2,66.7,73,67,44,30.04,29.97,5,1,9,0.00
2013-8-6,93.1,85.0,77.6,77.4,71.3,52.7,89,66,26,30.03,29.96,5,1,12,0.00
2013-8-7,91.0,84.6,78.4,77.9,75.2,70.6,88,74,60,29.99,29.94,5,1,9,0.00
2013-8-8,92.6,85.1,78.5,76.7,74.1,68.0,88,71,49,29.99,29.94,6,1,12,0.00
2013-8-9,91.1,80.9,72.3,77.0,70.0,59.3,86,70,51,29.95,29.83,6,1,14,0.06
2013-8-10,86.2,79.6,71.7,66.9,62.6,60.0,73,57,43,29.93,29.83,6,2,12,0.00
2013-8-11,89.9,79.6,72.9,70.0,62.2,57.4,78,56,34,29.97,29.90,8,2,13,0.00
2013-8-12,85.7,80.0,75.1,73.3,69.5,65.8,83,71,58,30.02,29.96,3,1,10,0.00
2013-8-13,84.7,79.0,74.1,71.7,69.5,66.0,84,73,63,30.03,29.97,5,1,12,0.00
2013-8-14,83.0,77.8,74.1,72.7,70.1,67.5,86,77,68,29.99,29.94,3,0,12,0.00
2013-8-17,87.1,81.2,75.0,73.5,66.1,60.3,73,60,48,30.06,30.00,3,1,11,0.00
2013-8-18,89.0,80.7,74.0,71.8,67.1,59.4,82,65,43,30.09,30.03,3,1,11,0.00
2013-8-19,87.8,79.6,74.2,72.2,69.2,59.7,89,72,39,30.07,29.97,5,1,10,0.00
2013-8-20,83.9,78.9,74.1,71.2,67.6,61.1,88,70,49,29.98,29.93,7,2,16,0.00
2013-8-23,85.2,79.8,75.9,69.8,66.6,60.2,78,65,43,30.02,29.98,3,1,12,0.00
2013-8-24,84.1,78.2,73.7,71.1,68.4,65.8,88,73,56,30.02,29.94,5,1,11,0.00
2013-8-25,79.1,74.6,69.3,70.9,66.8,62.2,85,77,60,29.95,29.86,5,1,12,0.62
2013-8-26,84.2,78.4,71.6,70.9,67.2,61.3,89,70,51,29.93,29.86,3,1,12,0.00
2013-8-27,82.3,75.3,69.5,72.0,68.4,64.5,90,79,63,29.90,29.84,8,1,16,0.27
2013-8-28,80.9,75.0,70.9,69.4,64.7,60.0,85,71,50,30.02,29.88,8,1,14,0.00
2013-8-29,80.6,74.2,70.3,66.5,64.0,60.6,81,71,52,30.09,30.02,5,1,9,0.00
2013-8-30,83.8,75.6,70.0,67.0,61.4,55.9,76,62,41,30.09,29.99,5,1,8,0.00
2013-8-31,84.8,76.8,69.7,60.1,53.6,46.3,58,45,29,30.08,30.01,6,1,12,0.00
2013-9-1,84.6,76.6,71.4,66.2,56.1,46.7,77,51,33,30.10,30.03,5,2,10,0.00
2013-9-2,83.5,76.5,69.4,65.7,61.0,56.7,78,60,43,30.19,30.07,6,1,12,0.00
2013-9-3,85.9,78.2,71.2,61.5,54.8,50.4,57,45,30,30.22,30.16,6,2,13,0.00
2013-9-4,90.1,79.9,71.3,60.1,52.8,48.6,47,40,26,30.21,30.12,7,2,15,0.00
2013-9-5,84.8,78.6,72.3,66.7,57.7,51.2,71,49,36,30.13,29.98,7,1,13,0.00
2013-9-6,85.2,78.1,72.0,68.6,61.9,55.6,80,58,38,29.99,29.92,5,1,12,0.00
2013-9-7,84.9,77.7,72.4,70.3,67.6,62.2,89,72,52,30.13,29.99,5,1,12,0.00
2013-9-8,79.6,74.9,73.0,71.4,69.2,66.6,90,83,74,30.19,30.13,1,0,6,0.00
2013-9-10,76.9,74.1,66.3,70.2,66.0,62.4,94,76,67,30.14,29.97,6,1,16,0.28
2013-9-11,79.1,73.5,66.3,67.5,64.9,62.0,94,75,57,30.07,30.01,6,2,13,0.29
2013-9-12,75.3,71.6,68.8,67.0,60.9,55.2,85,69,55,30.03,29.98,9,3,20,0.07
2013-9-13,76.8,70.6,66.5,60.8,58.5,56.0,77,66,51,30.15,30.00,5,1,12,0.00
2013-9-14,78.0,72.4,67.3,64.3,61.6,58.7,82,69,54,30.16,30.10,5,1,12,0.00
2013-9-15,74.9,70.9,66.3,64.9,60.7,58.4,80,71,60,30.12,29.87,3,1,12,0.00
2013-9-16,77.4,71.0,66.6,65.0,61.5,55.9,86,72,49,29.86,29.78,8,4,16,0.09
2013-9-17,74.4,69.1,65.2,66.0,60.6,54.5,93,75,57,29.79,29.71,13,4,27,0.19
2013-9-18,74.0,68.9,64.4,63.9,59.8,57.1,84,73,59,29.82,29.75,8,1,14,0.00
2013-9-19,75.5,70.6,67.1,63.8,61.8,58.0,85,74,58,29.89,29.76,7,2,14,0.00
2013-9-20,80.1,71.8,66.0,64.4,60.8,55.4,87,70,46,30.07,29.88,3,1,10,0.00
2013-9-21,83.2,74.4,67.0,64.9,58.7,45.1,78,60,28,30.16,30.06,8,1,12,0.00
2013-9-22,76.5,70.7,64.6,56.2,49.8,42.5,63,48,35,30.21,30.15,10,4,21,0.01
2013-9-23,75.7,68.1,62.0,59.8,51.6,45.3,77,56,42,30.19,30.10,7,2,15,0.00
2013-9-24,76.7,69.4,63.6,62.8,59.5,57.0,82,72,51,30.12,30.08,6,1,12,0.00
2013-9-25,75.1,69.1,64.7,63.9,61.7,60.4,89,78,62,30.10,30.05,3,1,10,0.00
2013-9-26,75.4,69.9,65.1,66.4,63.6,59.9,90,81,70,30.08,30.01,5,1,10,0.00
2013-9-27,77.0,71.8,67.1,68.8,66.8,65.0,93,85,72,30.05,30.00,3,0,10,0.00
2013-9-28,77.6,71.4,67.2,67.3,65.9,64.5,93,83,67,30.02,29.96,3,0,9,0.00
2013-9-29,77.0,71.5,67.0,69.3,66.1,63.8,93,84,64,29.97,29.78,5,1,10,0.01
2013-9-30,74.7,70.8,67.5,70.2,65.5,62.0,94,84,65,29.79,29.63,9,3,18,0.24
2013-10-1,75.3,70.2,65.6,64.4,62.2,59.4,88,76,60,29.82,29.67,7,2,15,0.00
2013-10-2,75.5,68.6,61.8,63.6,55.9,49.7,88,65,48,30.12,29.81,6,2,13,0.00
2013-10-3,73.1,65.9,60.2,50.1,45.1,40.0,66,48,31,30.28,30.12,9,3,18,0.00
2013-10-4,74.1,66.2,58.7,55.7,48.2,43.5,64,53,36,30.32,30.26,6,1,9,0.00
2013-10-5,68.2,65.1,60.0,62.8,57.8,51.6,95,78,58,30.29,30.07,10,1,20,1.34
2013-10-6,72.0,67.4,62.1,65.9,63.9,60.8,97,89,77,30.10,30.02,10,2,20,2.98
2013-10-7,74.8,68.5,62.5,65.8,63.8,61.1,97,86,69,30.16,30.06,3,1,8,0.22
2013-10-8,73.7,66.8,63.6,65.0,61.8,56.2,95,85,70,30.18,30.12,6,1,12,0.38
2013-10-9,71.8,65.8,61.7,62.5,60.5,57.8,91,83,71,30.16,30.07,3,1,10,0.09
2013-10-10,71.3,66.4,61.7,63.8,61.3,58.5,95,84,73,30.09,29.91,3,1,12,0.05
2013-10-12,72.1,68.2,63.6,65.1,62.9,61.7,96,83,70,30.19,30.10,5,1,16,0.52
2013-10-13,80.6,72.8,67.6,65.6,61.0,54.0,80,67,47,30.18,30.13,3,1,8,0.00
2013-10-14,69.3,67.7,66.4,60.5,59.7,58.7,80,76,69,30.16,30.12,5,2,12,0.00
2013-10-15,72.4,68.7,65.1,65.7,63.5,58.4,92,84,75,30.13,30.01,3,0,8,0.00
2013-10-16,72.0,67.4,62.7,65.3,61.6,52.0,93,82,68,30.01,29.72,10,3,23,0.26
2013-10-17,73.9,65.8,60.4,55.8,49.3,41.7,71,56,33,30.05,29.89,7,2,12,0.00
2013-10-18,73.4,65.6,60.7,57.7,48.7,41.7,71,55,43,30.10,30.04,2,0,5,0.00
2013-10-19,74.3,67.0,61.2,61.0,57.4,51.6,82,72,48,30.30,30.15,2,0,7,0.00
2013-10-20,74.4,68.7,64.3,65.6,62.3,57.8,90,80,69,30.34,30.28,3,1,9,0.00
2013-10-21,76.7,70.1,64.4,65.7,61.9,58.3,88,76,64,30.32,30.25,3,0,7,0.00
2013-10-22,67.0,65.5,64.3,63.3,61.4,59.3,89,87,82,30.26,30.23,0,0,1,0.00
2013-10-23,74.9,68.3,62.9,65.6,63.8,61.0,96,86,69,30.23,30.16,3,0,7,0.01
2013-10-24,75.8,67.5,62.9,65.1,63.4,61.7,97,87,67,30.23,30.18,2,0,6,0.01
2013-10-25,78.5,69.6,64.5,64.4,61.9,59.3,90,77,57,30.22,30.18,5,0,10,0.00
2013-10-26,73.9,68.3,63.7,65.9,64.4,62.2,96,88,73,30.28,30.21,3,0,8,0.01
2013-10-27,71.5,66.8,64.5,65.3,63.6,62.3,95,90,79,30.29,30.23,3,0,8,0.01
2013-10-28,72.9,67.4,64.5,65.3,63.7,62.4,94,88,76,30.25,30.15,3,0,12,0.00
2013-10-29,73.6,67.6,63.5,65.6,63.6,61.8,96,87,73,30.15,30.02,2,0,7,0.01
2013-10-30,72.5,66.7,62.5,63.6,62.3,60.8,96,86,72,30.09,30.00,2,0,8,0.01
2013-10-31,76.2,67.7,62.9,61.5,59.1,55.7,89,75,51,30.19,30.09,2,0,8,0.00
2013-11-1,73.0,66.5,62.7,60.8,57.6,55.2,82,73,55,30.22,30.16,5,1,8,0.02
2013-11-2,68.5,65.0,61.4,63.4,61.4,58.7,94,88,82,30.19,30.12,5,1,12,0.45
2013-11-3,71.0,66.4,63.5,63.9,62.1,59.9,91,86,75,30.13,30.01,6,1,14,0.04
2013-11-4,70.3,67.2,63.0,63.0,61.0,59.5,89,81,72,30.03,29.63,8,3,21,0.00
2013-11-5,68.1,63.4,59.4,62.9,58.0,52.9,91,83,74,29.62,29.44,8,3,22,0.19
2013-11-6,69.5,62.4,57.7,57.1,53.3,50.0,84,73,52,29.94,29.55,7,1,12,0.00
2013-11-7,70.7,64.4,58.9,62.2,57.9,52.2,88,79,70,30.17,29.95,3,0,12,0.00
2013-11-8,69.9,64.1,61.0,62.3,60.3,58.9,94,88,75,30.17,30.10,2,0,8,0.01
2013-11-9,69.7,65.5,61.0,64.5,61.0,58.0,93,85,78,30.11,30.02,8,2,14,0.01
2013-11-10,65.9,63.0,59.5,58.9,55.6,52.2,87,77,64,30.05,29.63,12,3,22,0.32
2013-11-11,60.4,55.5,51.0,51.8,49.5,46.3,92,80,68,29.72,29.39,6,2,15,0.49
2013-11-12,66.5,59.7,54.6,55.4,51.5,46.6,81,74,65,29.96,29.72,5,2,12,0.01
2013-11-13,65.2,61.4,58.0,55.1,53.7,52.2,83,76,68,29.98,29.90,8,4,17,0.00
2013-11-14,65.4,62.1,58.5,54.2,52.6,51.2,79,71,63,30.01,29.93,8,2,16,0.00
2013-11-15,65.9,61.2,58.0,55.8,53.4,50.8,80,76,67,30.02,29.89,5,1,13,0.00
2013-11-16,60.9,59.0,56.7,53.2,51.1,48.5,87,75,64,30.15,30.02,7,3,18,0.17
2013-11-17,68.0,61.1,57.8,55.9,53.1,50.4,85,75,62,30.21,30.13,5,1,12,0.00
2013-11-18,66.3,61.8,56.9,54.7,52.7,51.2,83,73,62,30.14,29.81,9,1,22,0.00
2013-11-19,65.4,59.8,53.3,58.8,53.2,47.8,95,79,61,29.82,29.64,8,3,25,0.90
2013-11-20,62.9,59.0,55.5,56.8,52.2,46.8,92,78,70,29.79,29.56,12,4,27,0.31
2013-11-21,58.1,54.3,50.5,48.7,44.9,39.7,89,72,51,29.77,29.65,7,2,14,0.25
2013-11-22,55.0,53.2,50.6,51.7,49.9,47.8,93,89,80,29.59,29.48,7,2,15,1.37
2013-11-23,56.0,50.8,45.9,49.0,44.7,41.7,92,80,63,29.67,29.46,12,2,25,0.17
2013-11-24,51.6,49.0,45.9,46.1,44.1,41.8,92,83,75,29.72,29.61,5,1,10,0.24
2013-11-25,56.7,48.9,39.4,44.5,39.7,30.8,79,71,58,29.83,29.71,7,3,18,0.27
2013-11-26,47.2,42.5,39.0,31.6,30.1,27.1,72,62,50,30.00,29.82,13,4,21,0.00
2013-11-27,46.8,43.2,39.7,35.9,31.7,28.3,78,64,55,30.27,29.98,7,2,13,0.00
2013-11-28,46.9,44.2,41.7,42.3,39.5,35.5,91,83,73,30.33,30.23,8,3,15,0.19
2013-11-29,56.6,49.8,44.9,44.7,41.8,39.7,84,74,63,30.26,30.09,8,2,14,0.00
2013-11-30,54.7,51.3,48.8,45.9,43.3,41.0,80,74,65,30.08,29.75,7,2,21,0.01
2013-12-1,56.3,54.0,52.0,49.8,47.2,45.0,86,78,72,29.75,29.61,16,8,28,0.07
2013-12-2,57.2,55.4,53.5,55.2,52.6,49.6,95,90,79,30.12,29.72,5,1,14,1.05
2013-12-3,58.8,53.2,49.2,50.7,42.8,38.8,91,69,53,30.23,30.10,9,5,21,0.02
2013-12-4,58.5,52.1,47.5,47.3,40.9,36.9,86,66,46,30.26,30.20,7,1,13,0.00
2013-12-5,58.5,52.9,49.9,48.9,46.7,45.3,87,80,67,30.21,30.14,5,1,9,0.00
2013-12-6,55.4,53.3,51.1,46.8,44.9,42.8,81,73,64,30.14,29.97,5,1,12,0.00
2013-12-11,60.8,55.8,51.6,45.3,43.8,42.4,75,64,53,30.54,30.49,6,1,10,0.00
2013-12-12,57.9,52.4,49.2,47.9,44.6,41.4,81,75,68,30.51,30.36,3,1,12,0.00
2013-12-13,57.3,53.1,49.6,47.6,45.8,43.3,84,76,62,30.36,30.26,7,1,15,0.00
2013-12-14,58.1,53.5,48.8,49.3,45.9,43.2,84,76,60,30.43,30.30,6,1,13,0.00
2013-12-15,56.2,52.7,49.3,51.2,46.9,40.8,90,81,68,30.48,30.39,5,1,10,0.01
2013-12-16,57.6,52.3,48.0,40.7,38.2,34.1,72,59,48,30.55,30.47,5,2,12,0.00
2013-12-17,60.1,54.2,50.1,39.2,36.4,33.1,66,52,38,30.51,30.41,6,2,13,0.00